View from above orbital plane
|
View from above satellite
|
Ground track
|
The orbit data is extracted from the following two-line orbital elements,
1 18215U 87062B 21058.87449321 .00000107 00000-0 10177-4 0 9992
2 18215 82.5099 96.6509 0020301 356.0034 177.0289 14.83250032795232
Epoch (UTC): | 27 February 2021 20:59:16 |
Eccentricity: | 0.0020301 |
inclination: | 82.5099° |
perigee height: | 605 km |
apogee height: | 633 km |
right ascension of ascending node: | 96.6509° |
argument of perigee: | 356.0034° |
revolutions per day: | 14.83250032 |
mean anomaly at epoch: | 177.0289° |
orbit number at epoch: | 79523 |
The dashed part of the orbit path shows where the satellite is in the earth's shadow,
|
|